TimeMST,TemperatureF,Dew PointF,Humidity,Sea Level PressureIn,VisibilityMPH,Wind Direction,Wind SpeedMPH,Gust SpeedMPH,PrecipitationIn,Events,Conditions,WindDirDegrees,DateUTC
12:53 AM,86.0,66.0,51,29.86,10.0,NE,10.4,-,N/A,,Partly Cloudy,50,2013-08-18 07:53:00
1:53 AM,88.0,59.0,37,29.81,10.0,ENE,11.5,-,0.00,,Overcast,60,2013-08-18 08:53:00
2:53 AM,90.0,57.0,33,29.78,10.0,East,9.2,-,N/A,,Clear,80,2013-08-18 09:53:00
3:53 AM,87.1,57.9,37,29.77,10.0,WSW,3.5,-,N/A,,Clear,250,2013-08-18 10:53:00
4:53 AM,86.0,59.0,40,29.80,10.0,SW,5.8,-,N/A,,Clear,230,2013-08-18 11:53:00
5:53 AM,84.9,60.1,43,29.80,10.0,Calm,Calm,-,N/A,,Clear,0,2013-08-18 12:53:00
6:53 AM,84.9,61.0,44,29.83,10.0,Calm,Calm,-,N/A,,Clear,0,2013-08-18 13:53:00
7:53 AM,88.0,60.1,39,29.84,10.0,Calm,Calm,-,N/A,,Clear,0,2013-08-18 14:53:00
8:53 AM,91.0,60.1,35,29.84,10.0,SSE,4.6,-,N/A,,Clear,160,2013-08-18 15:53:00
9:53 AM,93.9,60.1,32,29.85,10.0,South,5.8,-,N/A,,Clear,190,2013-08-18 16:53:00
10:53 AM,99.0,55.0,23,29.84,10.0,Calm,Calm,-,N/A,,Clear,0,2013-08-18 17:53:00
11:53 AM,100.9,54.0,21,29.83,10.0,Variable,3.5,-,N/A,,Clear,0,2013-08-18 18:53:00
12:53 PM,104.0,53.1,18,29.80,10.0,Variable,6.9,-,N/A,,Clear,0,2013-08-18 19:53:00
1:53 PM,106.0,52.0,17,29.77,10.0,SW,8.1,-,N/A,,Clear,220,2013-08-18 20:53:00
2:53 PM,107.1,48.9,14,29.73,10.0,Variable,4.6,-,N/A,,Clear,0,2013-08-18 21:53:00
3:53 PM,106.0,48.0,14,29.72,10.0,Calm,Calm,-,N/A,,Clear,0,2013-08-18 22:53:00
4:53 PM,106.0,48.9,15,29.72,10.0,SW,5.8,-,N/A,,Clear,220,2013-08-18 23:53:00
5:53 PM,105.1,48.9,15,29.71,10.0,Calm,Calm,-,N/A,,Clear,0,2013-08-19 00:53:00
6:53 PM,100.0,53.1,21,29.73,10.0,SE,15.0,25.3,N/A,,Clear,140,2013-08-19 01:53:00
7:53 PM,97.0,55.0,24,29.77,10.0,SE,5.8,-,N/A,,Clear,140,2013-08-19 02:53:00
8:53 PM,96.1,55.0,25,29.80,10.0,SE,5.8,-,N/A,,Clear,140,2013-08-19 03:53:00
9:53 PM,95.0,55.9,27,29.82,10.0,Calm,Calm,-,N/A,,Clear,0,2013-08-19 04:53:00
10:53 PM,93.9,57.9,30,29.83,10.0,East,3.5,-,N/A,,Clear,90,2013-08-19 05:53:00
11:53 PM,91.9,59.0,33,29.84,10.0,SE,4.6,-,N/A,,Clear,130,2013-08-19 06:53:00